Individual courses

Choose from hundreds of courses to fit your interests

Available individual course schedule

Tailor your education to match your goals by taking relevant, single courses. You can enroll by phone, or online by simply browsing the available online schedule and clicking on a course.

Need assistance? For program information please call 844.YES.UOPX or request additional information today.

Individual courses

Additional fees may be associated with each enrolled course. Please check with an Enrollment Representative.


General Electives

Communications

Course Course Title Credits Weeks General Elective Tuition Oct-17 Nov-17 Dec-17 Jan-18 Feb-18 Mar-18
BSCOM/100 Introduction to Communication 3 5 Yes $1,230 10/24/17 11/28/17 - 1/16/18 2/20/18 3/27/18
BSCOM/234 Foundations of Interpersonal Communication 3 5 Yes $1,230 10/24/17 11/28/17 - 1/16/18 2/20/18 3/27/18
BSCOM/268 Foundations of Mass Communication 3 5 Yes $1,230 10/24/17 11/28/17 - 1/16/18 2/20/18 3/27/18
BSCOM/300 Advertising and the Media 3 5 Yes $1,905 10/24/17 11/28/17 - 1/16/18 2/20/18 3/27/18
BSCOM/330 Computer Mediated Communication 3 5 Yes $1,905 - 11/28/17 - - 2/20/18 -
BSCOM/348 Small Group and Team Communication 3 5 Yes $1,905 10/24/17 11/28/17 - 1/16/18 2/20/18 3/27/18
BSCOM/360 Organizational Communication 3 5 Yes $1,905 10/24/17 11/28/17 - 1/16/18 2/20/18 3/27/18
BSCOM/384 Marketing Communications 3 5 Yes $1,905 10/24/17 11/28/17 - 1/16/18 2/20/18 3/27/18
BSCOM/385 Public Relations and Message Management 3 5 Yes $1,905 10/24/17 11/28/17 - 1/16/18 2/20/18 3/27/18
BSCOM/386 Sales Communication 3 5 Yes $1,905 10/24/17 11/28/17 - 1/16/18 2/20/18 3/27/18
BSCOM/435 Creativity and Communication 3 5 Yes $1,905 10/24/17 11/28/17 - 1/16/18 2/20/18 3/27/18
COMM/102 Communication Skills For Career Growth 3 5 Yes $1,230 10/10 & 10/24 11/14 & 11/28 - 1/2 & 1/16 2/6 & 2/20 3/13 & 3/27
COMM/110 Introduction to Oral Communication 3 5 Yes $1,230 10/10 & 10/24 11/14 & 11/28 - 1/2 & 1/16 2/6 & 2/20 3/13 & 3/27
COMM/310 Public Speaking 3 5 Yes $1,305 10/24/17 11/28/17 - 1/16/18 2/20/18 3/27/18
COMM/315 Diversity Issues in Communication 3 5 Yes $1,905 10/24/17 - - 1/16/18 - 3/27/18
COMM/400 Management Communication Skills 3 5 Yes $1,905 10/24/17 11/28/17 - 1/16/18 2/20/18 3/27/18
COMM/470 Communicating in the Virtual Workplace 3 5 Yes $1,905 10/24/17 11/28/17 - 1/16/18 2/20/18 3/27/18
CSC/390 Culture and Communication 3 5 Yes $1,905 - 11/28/17 - - - 3/27/18
CSC/391 Geography, Culture and Communication 3 5 Yes $1,905 - - - 1/16/18 - 5/1/18
CSC/392 Ethnic and Cultural Diversity 3 5 Yes $1,905 10/24/17 - - - 2/20/18 -
CSC/475 Contemporary Communication in a Diverse Society 3 5 Yes $1,905 - - - - - -
JRN/310 Introduction to Journalism 3 5 Yes $1,905 10/24/17 - - 1/16/18 - 3/27/18
JRN/320 Research for Journalism 3 5 Yes $1,905 - 11/28/17 - - 2/20/18 -
LCO/360 Leadership Communication 3 5 Yes $1,905 - 11/28/17 - - - 3/27/18
LCO/372 Leadership Communication Ethics 3 5 Yes $1,905 10/24/17 - - - 2/20/18 -
LCO/465 Conflict Management 3 5 Yes $1,905 - - - 1/16/18 - 5/1/18
LCO/480 Social Media and the Organization 3 5 Yes $1,905 10/24/17 - - - 2/20/18 -

English

Course Course Title Credits Weeks General Elective Tuition Oct-17 Nov-17 Dec-17 Jan-18 Feb-18 Mar-18
ENG/215  Effective Academic Writing 3 5 Yes $1,230 10/24/17 11/28/17 - 1/16/18 2/20/18 3/27/18
ENG/220  University Academic Writing 3 5 Yes $1,230 10/10 & 10/24 11/14 & 11/28 - 1/2 & 1/16 2/6 & 2/20 3/13 & 3/27
ENG/222  Introduction to Technical Writing 3 5 Yes $1,230 10/24/17 11/28/17 - 1/16/18 2/20/18 3/27/18
ENG/313  Writing Proposals 1 2 Yes $635 10/24/17 11/28/17 - 1/16/18 2/20/18 3/27/18
ENG/340  Creative Writing 3 5 Yes $1,305 10/24/17 11/28/17 - 1/16/18 2/20/18 3/27/18
ENG/380  Applied Linguistics 3 5 Yes $1,305 10/24/17 11/28/17 - 1/16/18 2/20/18 3/27/18
ENG/480  ENG/480 - APPLIED RHETORIC  3 5 Yes $1,305 10/24/17 11/28/17 - 1/16/18 2/20/18 3/27/18
ENG/495  Advanced Creative Writing 3 5 Yes $1,305 10/24/17 11/28/17 - 1/16/18 2/20/18 3/27/18
WRIT/320  Advanced Composition for the English Major 3 5 Yes $1,305 10/24/17 11/28/17 - 1/16/18 2/20/18 3/27/18

back to top

Geography

Course Course Title Credits Weeks General Elective Tuition Oct-17 Nov-17 Dec-17 Jan-18 Feb-18 Mar-18
GEO/155 Cultural Geography 3 5 Yes $1,230 10/24/17 11/28/17 - 1/16/18 2/20/18 3/27/18
GEO/215 Geography 3 5 Yes $1,230 10/10 & 10/24 11/14 & 11/28 - 1/2 & 1/16 2/6 & 2/20 3/13 & 3/27

back to top

History

Course Course Title Credits Weeks General Elective Tuition Oct-17 Nov-17 Dec-17 Jan-18 Feb-18 Mar-18
HIS/301 U.S. Constitution 3 5 Yes $1,905 10/10 & 10/24 11/14 & 11/28 - 1/2 & 1/16 2/6 & 2/20 3/13 & 3/27
HIS/305 California State History 3 5 Yes $1,905 10/24/17 11/28/17 - 1/16/18 2/20/18 3/27/18
HIS/311 Nevada and US Constitution 3 5 Yes $1,905 - 11/28/17 - - - 3/27/18
HIS/335  Europe and the World Wars 3 5 Yes $1,905 - 11/28/17 - - - 3/27/18
HIS/341 Ancient Worlds 3 5 Yes $1,905 10/24/17 11/28/17 - 1/16/18 2/20/18 3/27/18
HIS/349 The History of Modern China 3 5 Yes $1,905 10/10/17 - - 1/2/18 - 3/13/18
HIS/356 History of Africa 3 5 Yes $1,905 - 11/28/17 - - - -
HIS/458 History of Human Discovery 3 5 Yes $1,905 10/24/17 11/28/17 - 1/16/18 2/20/18 3/27/18
HST/155 U. S. History To 1865 3 5 Yes $1,230 10/24/17 11/28/17 - 1/16/18 2/20/18 3/27/18
HST/165 U. S. History 1865 To 1945 3 5 Yes $1,230 10/24/17 11/28/17 - 1/16/18 2/20/18 3/27/18
HST/175 The American Experience Since 1945 3 5 Yes $1,230 10/10 & 10/24 11/14 & 11/28 - 1/2 & 1/16 2/6 & 2/20 3/13 & 3/27
HST/206 Latin America 3 5 Yes $1,230 - 11/28/17 - - - 3/27/18
HST/276 Global Civilizations Since 1500 3 5 Yes $1,230 - 11/28/17 - - 2/20/18 -
HST/343 The Middle East 3 5 Yes $1,905 - 11/28/17 - - - 3/27/18
HST/409 American Revolution 3 5 Yes $1,905 - 11/28/17 - - - 3/27/18

back to top

Humanities

Course Course Title Credits Weeks General Elective Tuition Oct-17 Nov-17 Dec-17 Jan-18 Feb-18 Mar-18
ARTS/100    Introduction to the Visual and Performing Arts 3 5 Yes $1,230 10/10 & 10/24 11/14 & 11/28 - 1/2 & 1/16 2/6 & 2/20 3/13 & 3/27
ARTS/125 Pop Culture and the Arts 3 5 Yes $1,230 10/10 & 10/24 11/14 & 11/28 - 1/2 & 1/16 2/6 & 2/20 3/13 & 3/27
ARTS/230 Survey of Visual Arts 3 5 Yes $1,230 10/24/17 11/28/17 - 1/16/18 2/20/18 3/27/18
ARTS/340 Exploration of Western Classical Music 3 5 Yes $1,905 10/10 & 10/24 11/14 & 11/28 - 1/2 & 1/16 2/6 & 2/20 3/13 & 3/27
ETH/316 Ethics and Social Responsibility 3 5 Yes $1,905 10/10 & 10/24 11/14 & 11/28 - 1/2 & 1/16 2/6 & 2/20 3/13 & 3/27
HUM/100 Intro to Humanities: Ancient World to Medieval Times 3 5 Yes $1,230 10/10 & 10/24 11/14 & 11/28 - 1/2 & 1/16 2/6 & 2/20 3/13 & 3/27
HUM/102 Intro to Humanities: Renaissance to Present 3 5 Yes $1,230 10/24/17 11/28/17 - 1/16/18 2/20/18 3/27/18
HUM/105 World Mythology 3 5 Yes $1,230 10/24/17 11/28/17 - 1/16/18 2/20/18 3/27/18
HUM/150 Introduction to Film Studies 3 5 Yes $1,230 10/10 & 10/24 11/14 & 11/28 - 1/2 & 1/16 2/6 & 2/20 3/13 & 3/27
HUM/300 The Global Village 1 2 Yes $635 10/24/17 11/28/17 - 1/16/18 2/20/18 3/27/18
MUS/250 Music Appreciation 3 5 Yes $1,230 10/24/17 11/28/17 - 1/16/18 2/20/18 3/27/18
RHET/300 Rhetorical Theories 3 5 Yes $1,305 - 11/28/17 - - 2/20/18 -

back to top

Languages

Course Course Title Credits Weeks General Elective Tuition Oct-17 Nov-17 Dec-17 Jan-18 Feb-18 Mar-18
SPAN/110 Conversational Spanish I 3 5 Yes $1,230 10/24/17 11/28/17 - 1/16/18 2/20/18 3/27/18
SPAN/114 Conversational Spanish II 3 5 Yes $1,230 10/24/17 11/28/17 - 1/16/18 2/20/18 3/27/18

back to top

Literature

Course Course Title Credits Weeks General Elective Tuition Oct-17 Nov-17 Dec-17 Jan-18 Feb-18 Mar-18
ENG/106  Survey of Literary Masterpieces 3 5 Yes $1,230 10/24/17 11/28/17 - 1/16/18 2/20/18 3/27/18
ENG/125  Literature in Society 3 5 Yes $1,230 10/24/17 11/28/17 - 1/16/18 2/20/18 3/27/18
ENG/157  Multicultural Literature 3 5 Yes $1,230 10/24/17 11/28/17 - 1/16/18 2/20/18 3/27/18
ENG/301  American Ethnic Literature 3 5 Yes $1,305 10/24/17 - - 1/16/18 - 3/27/18
ENG/302  20th Century American Literature 3 5 Yes $1,305 10/24/17 - - 1/16/18 - 3/27/18
ENG/306  Poetry and Society 3 5 Yes $1,305 - 11/28/17 - - 2/20/18 -
ENG/437  Literary Genres Across Cultures 3 5 Yes $1,305 10/24/17 - - - - 3/27/18
ENG/491  American Literature to 1860 3 5 Yes $1,305 10/24/17 11/28/17 - 1/16/18 2/20/18 3/27/18
ENG/492  American Literature since 1860 3 5 Yes $1,305 10/24/17 - - 1/16/18 - 3/27/18
ENG/493  English Literature to 1800 3 5 Yes $1,305 10/24/17 11/28/17 - 1/16/18 2/20/18 3/27/18
ENG/494  English Literature since 1800 3 5 Yes $1,305 - 11/28/17 - - 2/20/18 -
LIT/235  Survey of English Literature to 1798 3 5 Yes $1,230 10/24/17 11/28/17 - 1/16/18 2/20/18 3/27/18
LIT/245  Survey of English Literature Since 1798 3 5 Yes $1,230 10/24/17 11/28/17 - 1/16/18 2/20/18 3/27/18
LIT/255  Survey of American Literature to 1860 3 5 Yes $1,230 10/24/17 11/28/17 - 1/16/18 2/20/18 3/27/18
LIT/265  Survey of American Literature Since 1860 3 5 Yes $1,230 10/24/17 11/28/17 - 1/16/18 2/20/18 3/27/18
LIT/304  Shakespeare 3 5 Yes $1,305 10/24/17 11/28/17 - 1/16/18 2/20/18 3/27/18
LIT/305  Major American Novel 3 5 Yes $1,305 - 11/28/17 - - 2/20/18 -
LIT/330  Modern Poetry 3 5 Yes $1,305 10/24/17 - - 1/16/18 - 3/27/18
LIT/340  African American literature 3 5 Yes $1,305 10/24/17 - - 1/16/18 - 3/27/18
LIT/410  Literature of the Fantastic 3 5 Yes $1,305 - 11/28/17 - - 2/20/18 -
LIT/420  Comic Books and Graphic Novels 3 5 Yes $1,305 10/24/17 11/28/17 - 1/16/18 2/20/18 3/27/18
LIT/450  Women Writers 3 5 Yes $1,305 10/24/17 11/28/17 - 1/16/18 2/20/18 3/27/18

back to top

Math

Course Course Title Credits Weeks General Elective Tuition Oct-17 Nov-17 Dec-17 Jan-18 Feb-18 Mar-18
MTH/110  History of Mathematics 1 2 Yes $410 10/24/17 11/28/17 - 1/16/18 2/20/18 3/27/18
MTH/208  College Mathematics I 3 5 Yes $1,230 10/10 & 10/24 11/14 & 11/28 - 1/2 & 1/16 2/6 & 2/20 3/13 & 3/27
MTH/209  College Mathematics II 3 5 Yes $1,230 10/10 & 10/24 11/14 & 11/28 - 1/2 & 1/16 2/6 & 2/20 3/13 & 3/27
MTH/210  Fundamentals of Geometry 3 5 Yes $1,230 10/24/17 11/28/17 - 1/16/18 2/20/18 3/27/18
MTH/212  Introduction to Finite Mathematics 3 5 Yes $1,230 10/24/17 11/28/17 - 1/16/18 2/20/18 3/27/18
MTH/215  Quantitative Reasoning I 3 5 Yes $1,230 10/10 & 10/24 11/14 & 11/28 - 1/2 & 1/16 2/6 & 2/20 3/13 & 3/27
MTH/216  Quantitative Reasoning II 3 5 Yes $1,230 10/10 & 10/24 11/14 & 11/28 - 1/2 & 1/16 2/6 & 2/20 3/13 & 3/27
MTH/217  Statistics I 3 5 Yes $1,230 10/10 & 10/24 11/14 & 11/28 - 1/2 & 1/16 2/6 & 2/20 3/13 & 3/27
MTH/218  Statistics II 3 5 Yes $1,230 10/10 & 10/24 11/14 & 11/28 - 1/2 & 1/16 2/6 & 2/20 3/13 & 3/27
MTH/219  Introduction to College Algebra 3 5 Yes $1,230 10/10 & 10/24 11/14 & 11/28 - 1/2 & 1/16 2/6 & 2/20 3/13 & 3/27
MTH/220  College Algebra 3 5 Yes $1,230 10/10 & 10/24 11/14 & 11/28 - 1/2 & 1/16 2/6 & 2/20 3/13 & 3/27
MTH/221  Discrete Math for Information Technology 3 5 Yes $1,230 10/24/17 11/28/17 - 1/16/18 2/20/18 3/27/18
MTH/225  Pre-Calculus 4 7 Yes $1,640 10/24/17 11/28/17 - 1/16/18 2/20/18 3/27/18
MTH/231  Statistics For The Life Sciences 3 5 Yes $1,230 10/10 & 10/24 11/14 & 11/28 - 1/2 & 1/16 2/6 & 2/20 3/13 & 3/27
MTH/280  Calculus I 4 7 Yes $1,640 10/24/17 11/28/17 - 1/16/18 2/20/18 3/27/18
MTH/290  Calculus II 4 7 Yes $1,640 - 11/28/17 - - 2/20/18 -
MTH/360  Linear Algebra  3 5 Yes $1,905 - 11/28/17 - - - 3/27/18
MTH/380  Calculus III 3 5 Yes $1,905 - 11/28/17 - - - -
MTH/463  Applied Statistics  3 5 Yes $1,905 10/24/17 11/28/17 - 1/16/18 2/20/18 3/27/18
MTH/530 Linear Algebra 3 6 No $1,620 - 11/21/17 - - 2/27/18 -
MTH/535 Geometry 3 6 No $1,620 10/10/17 - - 1/16/18 - -
MTH/540 Statistics 3 6 No $1,620 10/10/17 11/21/17 - 1/16/18 2/27/18 -

back to top

Philosophy

Course Course Title Credits Weeks General Elective Tuition Oct-17 Nov-17 Dec-17 Jan-18 Feb-18 Mar-18
PHL/215  Philosophy: Methods and Applications 3 5 Yes $1,230 10/24/17 11/28/17 - 1/16/18 2/20/18 3/27/18
PHL/251  Critical Thinking 3 5 Yes $1,230 - - - - - -
PHL/464  History of Philosophical Thought 3 5 Yes $1,905 10/24/17 - - 1/16/18 - 3/27/18
PHL/458  Creative Minds and Critical Thinking 3 5 Yes $1,905 10/10 & 10/24 11/14 & 11/28 - 1/2 & 1/16 2/6 & 2/20 3/13 & 3/27

back to top

Political Science

Course Course Title Credits Weeks General Elective Tuition Oct-17 Nov-17 Dec-17 Jan-18 Feb-18 Mar-18
POL/115  AMERICAN NATIONAL GOVERNMENT 3 5 Yes $1,230 10/10 & 10/24 11/14 & 11/28 - 1/2 & 1/16 2/6 & 2/20 3/13 & 3/27
POL/215  State and Local Political Processes 3 5 Yes $1,230 10/24/17 11/28/17 - 1/16/18 2/20/18 3/27/18
POL/443  Wealth and Power in America 3 5 Yes $1,905 10/10 & 10/24 11/14 & 11/28 - 1/2 & 1/16 2/6 & 2/20 3/13 & 3/27

back to top

Religion

Course Course Title Credits Weeks General Elective Tuition Oct-17 Nov-17 Dec-17 Jan-18 Feb-18 Mar-18
REL/133  World Religious Traditions I 3 5 Yes $1,230 10/10 & 10/24 11/14 & 11/28 - 1/2 & 1/16 2/6 & 2/20 3/13 & 3/27
REL/134  World Religious Traditions II 3 5 Yes $1,230 10/10 & 10/24 11/14 & 11/28 - 1/2 & 1/16 2/6 & 2/20 3/13 & 3/27

back to top

Science

Course Course Title Credits Weeks General Elective Tuition Oct-17 Nov-17 Dec-17 Jan-18 Feb-18 Mar-18
BIO/101  Principles of Biology 3 5 Yes $1,230 10/10 & 10/24 11/14 & 11/28 - 1/2 & 1/16 2/6 & 2/20 3/13 & 3/27
BIO/204  Plant Physiology 3 5 Yes $1,230 10/24/17 11/28/17 - 1/16/18 2/20/18 3/27/18
BIO/240  General Biology 3 5 Yes $1,230 10/24/17 11/28/17 - 1/16/18 2/20/18 3/27/18
BIO/280  Conservation Biology 3 5 Yes $1,230 10/24/17 11/28/17 - 1/16/18 2/20/18 3/27/18
BIO/290  Anatomy and Physiology I 4 7 Yes $1,640 10/24/17 11/28/17 - 1/16/18 2/20/18 3/27/18
BIO/291  Anatomy and Physiology II 4 7 Yes $1,640 10/10/17 11/14/17 - 1/2/18 2/6/18 3/13/18
BIO/315  Ecology and Evolution 3 5 Yes $1,305 11/14/17 11/28/17 - 1/16/18 2/20/18 3/27/18
BIO/330  Invertebrate Zoology 3 5 Yes $1,305 10/24/17 - - 1/16/18 - 3/27/18
BIO/335  Entomology 3 5 Yes $1,305 - 11/28/17 - - - 3/27/18
BIO/340  Microbiology 3 5 Yes $1,305 10/24/17 11/28/17 - 1/16/18 2/20/18 3/27/18
BIO/350  General Biology I 4 7 Yes $1,740 10/24/17 - - 1/16/18 - 3/27/18
BIO/351  General Biology II 4 7 Yes $1,740 10/10/17 - - 1/2/18 - 3/13/18
BIO/402  Immunology 3 5 Yes $1,305 - 11/28/17 - - 2/20/18 -
BIO/405  Human Biology 3 5 Yes $1,305 - 11/28/17 - - 2/20/18 -
BIO/410  Genetics 3 5 Yes $1,305 10/24/17 11/28/17 - 1/16/18 2/20/18 3/27/18
CHM/110  Introductory Chemistry 3 5 No $1,230 10/24/17 11/28/17 - 1/16/18 2/20/18 3/27/18
CHM/150  General Chemistry I 4 7 Yes $1,640 10/24/17 11/28/17 - 1/16/18 2/20/18 3/27/18
CHM/151  General Chemistry II 4 7 Yes $1,640 10/10/17 11/14/17 - 1/2/18 2/6/18 3/13/18
ENV/100  Principles of Environmental Science 3 5 Yes $1,230 10/10 & 10/24 11/14 & 11/28 - 1/2 & 1/16 2/6 & 2/20 3/13 & 3/27
ENV/310  Environmental Management 3 5 Yes $1,305 10/24/17 11/28/17 - 1/16/18 2/20/18 3/27/18
ENV/315  Global Change 3 5 Yes $1,305 10/24/17 11/28/17 - 1/16/18 2/20/18 3/27/18
ENV/320  Environmental Law 3 5 Yes $1,305 10/24/17 11/28/17 - 1/16/18 2/20/18 3/27/18
ENV/400  Watershed Hydrology 3 5 Yes $1,905 - - - 1/16/18 - 5/1/18
ENV/410  Environmental Toxicology 3 5 Yes $1,305 10/24/17 11/28/17 - 1/16/18 2/20/18 3/27/18
ENV/420  Environmental Risk Assessment 3 5 Yes $1,305 10/24/17 11/28/17 - 1/16/18 2/20/18 3/27/18
ENV/431  Public Policy Analysis 3 5 Yes $1,305 10/24/17 - - 1/16/18 - 3/27/18
GLG/150  Exploration of the Earth Sciences 3 5 Yes $1,230 10/10 & 10/24 11/14 & 11/28 - 1/2 & 1/16 2/6 & 2/20 3/13 & 3/27
GLG/220  Physical Geology 3 5 Yes $1,230 10/24/17 11/28/17 - 1/16/18 2/20/18 3/27/18
PHY/101  Fundamentals of Physics 3 5 Yes $1,230 10/24/17 11/28/17 - 1/16/18 2/20/18 3/27/18
SCI/201  Survey of Alternative Medicine 1 2 Yes $410 10/24/17 11/28/17 - 1/16/18 2/20/18 3/27/18
SCI/220  Human Nutrition 3 5 Yes $1,230 10/10 & 10/24 11/14 & 11/28 - 1/2 & 1/16 2/6 & 2/20 3/13 & 3/27
SCI/250  Microbiology 4 7 Yes $1,640 10/24/17 11/28/17 - 1/16/18 2/20/18 3/27/18
SCI/256  People, Science and the Environment 3 5 Yes $1,230 10/10 & 10/24 11/14 & 11/28 - 1/2 & 1/16 2/6 & 2/20 3/13 & 3/27
SCI/209  Oceanography 3 5 Yes $1,230 10/24/17 11/28/17 - 1/16/18 2/20/18 3/27/18
SCI/362  Environmental Issues and Ethics 3 5 Yes $1,305 10/24/17 11/28/17 - 1/16/18 2/20/18 3/27/18

back to top

Sociology

Course Course Title Credits Weeks General Elective Tuition Oct-17 Nov-17 Dec-17 Jan-18 Feb-18 Mar-18
SOC/100  Introduction to Sociology 3 5 Yes $1,230 10/10 & 10/24 11/14 & 11/28 - 1/2 & 1/16 2/6 & 2/20 3/13 & 3/27
SOC/110  Teamwork, Collaboration, and Conflict Resolution 3 5 Yes $1,230 10/10 & 10/24 11/14 & 11/28 - 1/2 & 1/16 2/6 & 2/20 3/13 & 3/27
SOC/262  Contemporary American Society 3 5 Yes $1,230 10/10 & 10/24 11/14 & 11/28 - 1/2 & 1/16 2/6 & 2/20 3/13 & 3/27
SOC/315  Cultural Diversity 3 5 Yes $1,905 10/10 & 10/24 11/14 & 11/28 - 1/2 & 1/16 2/6 & 2/20 3/13 & 3/27
SOC/333  Genders in Society 3 5 Yes $1,905 10/24/17 11/28/17 - 1/16/18 2/20/18 3/27/18
SOC/335  The Peoples and Cultures of Asia 3 5 Yes $1,905 10/24/17 - - 1/16/18 - 3/27/18
SOC/337  Contemporary Latin American Society 3 5 Yes $1,905 - 11/28/17 - - 2/20/18 -

back to top

Social Sciences

Undergraduate

Course Course Title Credits Weeks General Elective Tuition Oct-17 Nov-17 Dec-17 Jan-18 Feb-18 Mar-18
BPA/361     Grant Writing 3 5 No $1,905 10/24/17 11/28/17 - 1/16/18 2/20/18 3/27/18
BSHS/305   Historical Development of Human Services: An Introduction  3 5 Yes $1,905 10/24/17 11/28/17 - 1/16/18 2/20/18 3/27/18
BSHS/325   Human Systems and Development  3 5 No $1,905 10/24/17 11/28/17 - 1/16/18 2/20/18 3/27/18
BSHS/335   Ethics and Values for Human Service Professionals  3 5 No $1,905 10/24/17 11/28/17 - 1/16/18 2/20/18 3/27/18
BSHS/345   Diversity and Special Populations  3 5 No $1,905 10/24/17 11/28/17 - 1/16/18 2/20/18 3/27/18
BSHS/355   Delivery of Human Services: Theory and Practice 3 5 No $1,905 10/24/17 11/28/17 - 1/16/18 2/20/18 3/27/18
BSHS/375   Information Systems and Technology in Human Services 3 5 No $1,905 10/24/17 11/28/17 - 1/16/18 2/20/18 3/27/18
BSHS/385   Interpersonal Communication and Interviewing Skills 3 5 No $1,905 10/24/17 11/28/17 - 1/16/18 2/20/18 3/27/18
BSHS/395   Client Assessment and Planning 3 5 No $1,905 10/24/17 11/28/17 - 1/16/18 2/20/18 3/27/18
BSHS/405   Intervention, Direct Service Delivery & Case Management 3 5 No $1,905 10/24/17 11/28/17 - 1/16/18 2/20/18 3/27/18
BSHS/406   Family and Social Systems: Contemporary Trends and Issues 3 5 No $1,905 10/24/17 11/28/17 - 1/16/18 2/20/18 3/27/18
BSHS/407   Family Violence Across the Lifespan: A multi-Strata Problem 3 5 No $1,905 10/24/17 11/28/17 - 1/16/18 2/20/18 3/27/18
BSHS/408   Childhood Abuse and Neglect 3 5 No $1,905 10/24/17 11/28/17 - 1/16/18 2/20/18 3/27/18
BSHS/425   Administration & Management of Human Service Programs 3 5 No $1,905 10/24/17 11/28/17 - 1/16/18 2/20/18 3/27/18
BSHS/426  Human Services Management: Theory & Practice 3 5 No $1,905 10/24/17 11/28/17 - 1/16/18 2/20/18 3/27/18
BSHS/427  Critical Thinking Skills in Management Decision Making 3 5 Yes $1,905 10/24/17 11/28/17 - 1/16/18 2/20/18 3/27/18
BSHS/428  Human Services Program Design & Proposal Writing 3 5 No $1,905 10/24/17 11/28/17 - 1/16/18 2/20/18 3/27/18
BSHS/435  Research and Statistics in Human Services 3 5 No $1,905 10/24/17 11/28/17 - 1/16/18 2/20/18 3/27/18
BSHS/437  Social systems and Aging 3 5 No $1,905 10/24/17 - - - 2/20/18 -
BSHS/438  Care for Aging Population 3 5 No $1,905 - 11/28/17 - - - 3/27/18
BSHS/439  Grief, Loss, and End of Life Issues 3 5 No $1,905 - - - 1/16/18 - 5/1/18
BSHS/445  Survey of Crisis and Mental Health issues and Interventions 3 5 No $1,905 10/24/17 11/28/17 - 1/16/18 2/20/18 3/27/18
BSHS/455  Workig with Addictions 3 5 No $1,905 10/24/17 11/28/17 - 1/16/18 2/20/18 3/27/18
BSHS/456  Addiction Intervention for Human Service Workers 3 5 No $1,905 10/24/17 11/28/17 - 1/16/18 2/20/18 3/27/18
BSHS/457  Codependence & Working with Families 3 5 No $1,905 10/24/17 11/28/17 - 1/16/18 2/20/18 3/27/18
BSHS/458  Action Planning, Relapse Prevention & Aftercare 3 5 No $1,905 10/24/17 11/28/17 - 1/16/18 2/20/18 3/27/18
BSHS/462  Building Community In Organizations 3 5 No $1,905 - - - - - -
BSHS/465  Professional Develpment and Identity 3 5 No $1,905 10/24/17 11/28/17 - 1/16/18 2/20/18 3/27/18
ETH/120  Cultural Diversity in the United States 3 5 Yes $1,230 10/24/17 11/28/17 - 1/16/18 2/20/18 3/27/18
ECO/370  Environmental Economics 3 5 Yes $1,305 10/24/17 11/28/17 - 1/16/18 2/20/18 3/27/18
HS/205  Human Service Helping Process and Self-Care 3 5 No $1,230 10/24/17 11/28/17 - 1/16/18 2/20/18 3/27/18
HS/215  Introduction to the Human Services Profession 3 5 No $1,230 10/24/17 11/28/17 - 1/16/18 2/20/18 3/27/18
HS/225  Introduction to Case Management and Helping Strategies 3 5 No $1,230 10/24/17 11/28/17 - 1/16/18 2/20/18 3/27/18
HS/235  Public Policy, Social Welfare and Research 3 5 Yes $1,230 10/24/17 11/28/17 - 1/16/18 2/20/18 3/27/18
HS/245  Fundementals of Working with People 3 5 Yes $1,230 10/24/17 11/28/17 - 1/16/18 2/20/18 3/27/18
PSY/103  Introduction to Psychology 3 5 Yes $1,230 10/10 & 10/24 11/14 & 11/28 - 1/2 & 1/16 2/6 & 2/20 3/13 & 3/27
PSY/203  Foundations of Psychology 3 5 Yes $1,230 10/10 & 10/24 11/14 & 11/28 - 1/2 & 1/16 2/6 & 2/20 3/13 & 3/27
PSY/205  Life Span Human Development 3 5 Yes $1,230 10/10 & 10/24 11/14 & 11/28 - 1/2 & 1/16 2/6 & 2/20 3/13 & 3/27
PSY/215  Careers in Psychology 3 5 Yes $1,230 10/10 & 10/24 11/14 & 11/28 - 1/2 & 1/16 2/6 & 2/20 3/13 & 3/27
PSY/225  Positive Psychology 3 5 Yes $1,230 10/10 & 10/24 11/14 & 11/28 - 1/2 & 1/16 2/6 & 2/20 3/13 & 3/27
PSY/245  Survey of Research and Statistics 3 5 Yes $1,230 10/10 & 10/24 11/14 & 11/28 - 1/2 & 1/16 2/6 & 2/20 3/13 & 3/27
PSY/250  Psychology of Personality 3 5 Yes $1,230 10/10 & 10/24 11/14 & 11/28 - 1/2 & 1/16 2/6 & 2/20 3/13 & 3/27
PSY/275  Introduction to Abnormal Psychology 3 5 Yes $1,230 10/10 & 10/24 11/14 & 11/28 - 1/2 & 1/16 2/6 & 2/20 3/13 & 3/27
PSY/280  Human Growth and Development 3 5 Yes $1,230 10/24/17 11/28/17 - 1/16/18 2/20/18 3/27/18
PSY/300  General Psychology 3 5 Yes $1,905 10/24/17 11/28/17 - 1/16/18 2/20/18 3/27/18
PSY/301  Emotional Intelligence 1 2 Yes $635.00 10/24/17 11/28/17 - 1/16/18 2/20/18 3/27/18
PSY/310  History and Systems of Psychology 3 5 Yes $1,905 10/10 & 10/24 11/14 & 11/28 - 1/2 & 1/16 2/6 & 2/20 3/13 & 3/27
PSY/315  Statistical Reasoning in Psychology 3 5 Yes $1,905 10/10 & 10/24 11/14 & 11/28 - 1/2 & 1/16 2/6 & 2/20 3/13 & 3/27
PSY/320  Human Motivation 3 5 Yes $1,905 10/24/17 11/28/17 - 1/16/18 2/20/18 3/27/18
PSY/340  Biological Foundations of Psychology 3 5 Yes $1,905 10/10 & 10/24 11/14 & 11/28 - 1/2 & 1/16 2/6 & 2/20 3/13 & 3/27
PSY/355  Motivational Processes in Human Psychology 3 5 Yes $1,905 10/24/17 11/28/17 - 1/16/18 2/20/18 3/27/18
PSY/360  Cognitive Psychology 3 5 Yes $1,905 10/10 & 10/24 11/14 & 11/28 - 1/2 & 1/16 2/6 & 2/20 3/13 & 3/27
PSY/375  Life Span Human Development 3 5 Yes $1,905 10/24/17 11/28/17 - 1/16/18 2/20/18 3/27/18
PSY/390  Learning and Cognition 3 5 Yes $1,905 10/24/17 11/28/17 - 1/16/18 2/20/18 3/27/18
PSY/400  Social Psychology 3 5 Yes $1,905 10/10 & 10/24 11/14 & 11/28 - 1/2 & 1/16 2/6 & 2/20 3/13 & 3/27
PSY/405  Theories of Personality 3 5 Yes $1,905 10/10 & 10/24 11/14 & 11/28 - 1/2 & 1/16 2/6 & 2/20 3/13 & 3/27
PSY/410  Abnormal Psychology 3 5 Yes $1,905 10/10 & 10/24 11/14 & 11/28 - 1/2 & 1/16 2/6 & 2/20 3/13 & 3/27
PSY/425  Chemical Dependency in the Workplace 3 5 Yes $1,905 10/24/17 11/28/17 - 1/16/18 2/20/18 3/27/18
PSY/430  Team Dynamics for Managers 3 5 Yes $1,905 - 11/28/17 - - 2/20/18 -
PSY/435  Industrial/Organizational Psychology 3 5 Yes $1,905 10/10 & 10/24 11/14 & 11/28 - 1/2 & 1/16 2/6 & 2/20 3/13 & 3/27
PSY/450  Diversity and Cultural Factors in Psychology 3 5 Yes $1,905 10/10 & 10/24 11/14 & 11/28 - 1/2 & 1/16 2/6 & 2/20 3/13 & 3/27
PSY/460  Environmental Psychology 3 5 Yes $1,905 10/10 & 10/24 11/14 & 11/28 - 1/2 & 1/16 2/6 & 2/20 3/13 & 3/27
PSY/475  Psychological Tests and Measurements 3 5 Yes $1,905 10/10 & 10/24 11/14 & 11/28 - 1/2 & 1/16 2/6 & 2/20 3/13 & 3/27
RES/320  Foundations of Research 3 5 No $1,905 10/24/17 11/28/17 - 1/16/18 2/20/18 3/27/18

back to top

Graduate

Course Course Title Credits Weeks General Elective Tuition Oct-17 Nov-17 Dec-17 Jan-18 Feb-18 Mar-18
CCMH/504   Individual and family Development Across the Life Span 3 6 No $2,220 - - 12/12/17 - - -
CCMH/506   Personality Theories and Counseling Models 3 8 No $2,220 10/10/17 - - - 2/6/18 -
CCMH/510   Multi-cultural Issues in Mental Health Counseling 3 6 No $2,220 - - - - - -
CCMH/511   Fundamental Counseling Skills 3 6 No $2,220 10/24/17 - - - 2/20/17 -
CCMH/515   Legal, Ethical, and Professional Issues in Counseling 3 8 No $2,220 - - - - - -
CCMH/520   Biological Basis of Behavior/Physiological Issues 3 8 No $2,220 - - - - - -
CCMH/540   Career and Vocational Counseling 3 6 No $2,220 10/31/17 - - - 2/20/17 3/27/2018
CCMH/558   Crisis Intervention and Trauma 3 6 No $2,220 - 11/14/2017 - - - 3/20/2018
CCMH/581   Supervision/Management in Clinical Mental Health Counseling 3 6 No $2,220 - - 12/5/2017 - 2/20/18 -
CMHC/551   Human Sexuality and Sex Therapy 3 6 No $2,220 10/24/17 - - 1/9/18 - -
PSYCH/600   Developmental Psychology 3 6 No $2,220 10/10/17 11/21/17 - 1/16/18 2/27/18 -
PSYCH/610   Research Methods in Psychology 3 8 No $2,220 10/10/17 11/21/17 - 1/16/18 2/27/18 -
PSYCH/620   Multicultural and Social Issues in Psychology 3 6 No $2,220 10/31/17 - 12/12/17 - 2/6/18 3/20/18
PSYCH/625   Statistics for the Behavior Studies 3 6 No $2,220 10/31/17 - 12/12/17 - 2/6/18 3/20/18
PSYCH/630   Physiological Psychology 3 6 No $2,220 10/31/17 - 12/12/17 - 2/6/18 3/20/18
PSYCH/635   Psychology of Learning 3 6 No $2,220 10/31/17 - 12/12/17 - 2/6/18 3/20/18
PSYCH/645   Personality Theories 3 6 No $2,220 10/10/17 11/21/17 - 1/16/18 2/27/18 -
PSYCH/650   Psychopathology 3 6 No $2,220 10/10/17 11/21/17 - 1/16/18 2/27/18 -
PSYCH/655   Psychometrics 3 6 No $2,220 10/31/17 - 12/12/17 - 2/6/18 3/20/18
PSYCH/660   Ethics and Professional Issues 3 6 No $2,220 10/10/17 11/21/17 - 1/16/18 2/27/18 -

back to top

Business

Undergraduate

Course Course Title Credits Weeks General Elective Tuition Oct-17 Nov-17 Dec-17 Jan-18 Feb-18 Mar-18
ACC/210   Accounting Information Systems 3 5 Yes $1,230 10/24/17 11/28/17 - 1/16/18 2/20/18 3/27/18
ACC/290    Principles of Accounting I 3 5 No $1,230 10/10 & 10/24 11/14 & 11/28 - 1/2 & 1/16 2/6 & 2/20 3/13 & 3/27
ACC/291    Principles of Accounting II 3 5 No $1,230 10/10 & 10/24 11/14 & 11/28 - 1/2 & 1/16 2/6 & 2/20 3/13 & 3/27
ACC/295   Principles of Accounting I for Accountants 3 5 No $1,230 10/24/17 11/28/17 - 1/16/18 2/20/18 3/27/18
ACC/296   Principles of Accounting II for Accountants 3 5 No $1,230 10/24/17 11/28/17 - 1/16/18 2/20/18 3/27/18
ACC/349   Cost Accounting 3 5 No $1,905 10/24/17 11/28/17 - 1/16/18 2/20/18 3/27/18
ACC/350   Cost Accounting for Accountants 3 5 No $1,905 10/24/17 11/28/17 - 1/16/18 2/20/18 3/27/18
ACC/400   Accounting for Decision Making 3 5 No $1,905 10/24/17 11/28/17 - 1/16/18 2/20/18 3/27/18
ACC/421   Intermediate Financial Accounting I 3 5 No $1,905 10/24/17 11/28/17 - 1/16/18 2/20/18 3/27/18
ACC/422   Intermediate Financial Accounting II 3 5 No $1,905 10/24/17 11/28/17 - 1/16/18 2/20/18 3/27/18
ACC/423   Intermediate Financial Accounting III 3 5 No $1,905 10/24/17 11/28/17 - 1/16/18 2/20/18 3/27/18
ACC/455   Corporate Taxation 3 5 No $1,905 10/24/17 11/28/17 - 1/16/18 2/20/18 3/27/18
ACC/456   Individual / Estate Taxation 3 5 No $1,905 10/24/17 11/28/17 - 1/16/18 2/20/18 3/27/18
ACC/460   Government and Non-Profit Accounting 3 5 No $1,905 10/24/17 11/28/17 - 1/16/18 2/20/18 3/27/18
ACC/466   Advanced Accounting 3 5 No $1,905 - - - - - -
ACC/491   Contemporary Auditing I 3 5 No $1,905 10/24/17 11/28/17 - 1/16/18 2/20/18 3/27/18
ACC/492   Contemporary Auditing II 3 5 No $1,905 10/24/17 11/28/17 - 1/16/18 2/20/18 3/27/18
BCOM/231   Business Communications for Accountants 3 5 No $1,230 10/24/17 11/28/17 - 1/16/18 2/20/18 3/27/18
BIS/221   Introduction to Computer Applications & Systems 3 5 Yes $1,230 10/10 & 10/24 11/14 & 11/28 - 1/2 & 1/16 2/6 & 2/20 3/13 & 3/27
BIS/303   Managing Information Technology in the Hospitality Industry 3 5 No $1,905 10/24/17 11/28/17 - 1/16/18 2/20/18 3/27/18
BIS/320   Business Information Systems 3 5 Yes $1,905 10/24/17 11/28/17 - 1/16/18 2/20/18 3/27/18
BIS/375   Supply Chain Information Management in Online Environments 3 5 No $1,905 10/24/17 11/28/17 - 1/16/18 2/20/18 3/27/18
BRM/216   Introduction to the Retail Industry 3 5 No $1,230 10/24/17 - - 1/16/18 - 3/27/18
BRM/226   Customer Service Management 3 5 No $1,230 - 11/28/17 - - 2/20/18 -
BRM/236   Sales, Tools, and Strategies 3 5 No $1,230 10/24/17 - - 1/16/18 - 3/27/18
BRM/246   Retail Marketing: Merchandising 3 5 No $1,230 - 11/28/17 - - 2/20/18 -
BRM/256   Retail Personnel Management 3 5 No $1,230 10/24/17 - - 1/16/18 - 3/27/18
BRM/353   Product and Brand Management  3 5 No $1,905 10/24/17 11/28/17 - 1/16/18 2/20/18 3/27/18
BRM/360   Retail Data Analytics for Decision Making 3 5 No $1,905 10/24/17 11/28/17 - 1/16/18 2/20/18 3/27/18
CPMGT/300   Project Management 3 5 No $1,905 10/24/17 11/28/17 - 1/16/18 2/20/18 3/27/18
CPMGT/301   Strategic Portfolio and Project Management 3 5 No $1,905 10/24/17 11/28/17 - 1/16/18 2/20/18 3/27/18
CPMGT/302   Procurement and Risk Management 3 5 No $1,905 10/24/17 11/28/17 - 1/16/18 2/20/18 3/27/18
CPMGT/303   Project Estimating and Control Techniques 3 5 No $1,905 10/24/17 11/28/17 - 1/16/18 2/20/18 3/27/18
ECO/212   Principles of Economics 3 5 Yes $1,230 10/24/17 11/28/17 - 1/16/18 2/20/18 3/27/18
ECO/365   Principles of Microeconomics 3 5 No $1,905 10/10 & 10/24 11/14 & 11/28 - 1/2 & 1/16 2/6 & 2/20 3/13 & 3/27
ECO/372   Principles of Macroeconomics 3 5 No $1,905 10/10 & 10/24 11/14 & 11/28 - 1/2 & 1/16 2/6 & 2/20 3/13 & 3/27
ETH/321   Ethical and Legal Topics in Business 3 5 No $1,905 10/10 & 10/24 11/14 & 11/28 - 1/2 & 1/16 2/6 & 2/20 3/13 & 3/27
FIN/366   Financial Institutions 3 5 No $1,905 10/24/17 11/28/17 - 1/16/18 2/20/18 3/27/18
FIN/370   Finance for Business 3 5 No $1,905 10/10 & 10/24 11/14 & 11/28 - 1/2 & 1/16 2/6 & 2/20 3/13 & 3/27
FIN/375   Financial Management in the Small Business 3 5 No $1,905 10/24/17 11/28/17 - 1/16/18 2/20/18 3/27/18
FIN/402   Investment Fundamentals and Portfolio Management 3 5 No $1,905 10/24/17 11/28/17 - 1/16/18 2/20/18 3/27/18
FIN/410   Working Capital Management 3 5 No $1,905 10/24/17 11/28/17 - 1/16/18 2/20/18 3/27/18
FIN/415   Corporate Risk Management  3 5 No $1,905 10/24/17 11/28/17 - 1/16/18 2/20/18 3/27/18
FIN/419   Finance for Decision Making  3 5 No $1,905 10/24/17 11/28/17 - 1/16/18 2/20/18 3/27/18
FIN/420   Personal Financial Planning 3 5 No $1,905 10/24/17 11/28/17 - 1/16/18 2/20/18 3/27/18
FIN/444   Mergers, Acquisitions, & Corporate Restructuring 3 5 No $1,905 10/24/17 11/28/17 - 1/16/18 2/20/18 3/27/18
FIN/467   Real Estate Investment 3 5 No $1,905 10/24/17 11/28/17 - 1/16/18 2/20/18 3/27/18
GBM/380   Global Business 3 5 No $1,905 10/24/17 11/28/17 - 1/16/18 2/20/18 3/27/18
GBM/381   International Trade 3 5 No $1,905 10/24/17 11/28/17 - 1/16/18 2/20/18 3/27/18
HM/370   Hospitality Management 3 5 No $1,905 10/24/17 11/28/17 - 1/16/18 2/20/18 3/27/18
HRM/310   Change Management 3 5 No $1,905 10/24/17 11/28/17 - 1/16/18 2/20/18 3/27/18
HRM/324   Total Compensation 3 5 No $1,905 10/24/17 11/28/17 - 1/16/18 2/20/18 3/27/18
HRM/326   Employee Development 3 5 No $1,905 10/24/17 11/28/17 - 1/16/18 2/20/18 3/27/18
HRM/420   Human Resource Risk Management 3 5 No $1,905 10/24/17 11/28/17 - 1/16/18 2/20/18 3/27/18
HTT/201   Introduction to Hospitality 3 5 No $1,230 - 11/28/17 - - 2/20/18 -
HTT/211   Hospitality, Travel, and Tourism, Supervision 3 5 No $1,230 10/24/17 - - 1/16/18 - 3/27/18
HTT/221   IT in Hospitality 3 5 No $1,230 - 11/28/17 - - 2/20/18 -
HTT/231   Finance for Hospitality Professionals 3 5 No $1,230 - 11/28/17 - - 2/20/18 -
HTT/241   Food and Beverage Management 3 5 No $1,230 10/24/17 - - 1/16/18 - 3/27/18
HTT/251   Hospitality Operations 3 5 No $1,230 10/24/17 - - 1/16/18 - 3/27/18
ISCOM/305   Systems Operations Management 3 5 No $1,905 10/24/17 11/28/17 - 1/16/18 2/20/18 3/27/18
ISCOM/370   Strategic Supply Chain Management 3 5 No $1,905 10/24/17 11/28/17 - 1/16/18 2/20/18 3/27/18
ISCOM/383   Global Value Chain Management  3 5 No $1,905 10/24/17 11/28/17 - 1/16/18 2/20/18 3/27/18
ISCOM/472   Lean Enterprise 3 5 No $1,905 10/24/17 11/28/17 - 1/16/18 2/20/18 3/27/18
LAW/421   Contemporary Business Law 3 5 No $1,905 10/10 & 10/24 11/14 & 11/28 - 1/2 & 1/16 2/6 & 2/20 3/13 & 3/27
LDR/300   Innovative Leadership 3 5 No $1,905 10/24/17 11/28/17 - 1/16/18 2/20/18 3/27/18
MGT/230   Management Theory and Practice 3 5 No $1,230 10/10 & 10/24 11/14 & 11/28 - 1/2 & 1/16 2/6 & 2/20 3/13 & 3/27
MGT/300   Survey of Small Business Management and Entrepreneurship 3 5 No $1,905 10/24/17 11/28/17 - 1/16/18 2/20/18 3/27/18
MGT/312   Organizational Behavior for Managers 3 5 No $1,905 10/10 & 10/24 11/14 & 11/28 - 1/2 & 1/16 2/6 & 2/20 3/13 & 3/27
MGT/360   Green and Sustainable Enterprise Management 3 5 No $1,905 10/24/17 11/28/17 - 1/16/18 2/20/18 3/27/18
MGT/401   Small Business: Structure, Planning, Funding  3 5 No $1,905 10/24/17 11/28/17 - 1/16/18 2/20/18 3/27/18
MGT/411   Innovation and Creative Business Thinking 3 5 No $1,905 10/24/17 11/28/17 - 1/16/18 2/20/18 3/27/18
MGT/418   Evaluating New Business Opportunities 3 5 No $1,905 10/24/17 11/28/17 - 1/16/18 2/20/18 3/27/18
MGT/420   Managing Quality in the Supply Chain 3 5 No $1,905 10/24/17 11/28/17 - 1/16/18 2/20/18 3/27/18
MGT/426   Managing Change in the Workplace 3 5 No $1,905 10/24/17 11/28/17 - 1/16/18 2/20/18 3/27/18
MGT/434   Employment Law 3 5 No $1,905 10/24/17 11/28/17 - 1/16/18 2/20/18 3/27/18
MGT/445   Organizational Negotiations 3 5 No $1,905 10/24/17 11/28/17 - 1/16/18 2/20/18 3/27/18
MGT/448   Global Business Strategies 3 5 No $1,905 10/24/17 11/28/17 - 1/16/18 2/20/18 3/27/18
MKT/320   Business-to-Business Sales Management 3 5 No $1,905 10/24/17 11/28/17 - 1/16/18 2/20/18 3/27/18
MKT/421   Marketing 3 5 No $1,905 10/10 & 10/24 11/14 & 11/28 - 1/2 & 1/16 2/6 & 2/20 3/13 & 3/27
MKT/431   Small Business Marketing 3 5 No $1,905 10/24/17 11/28/17 - 1/16/18 2/20/18 3/27/18
MKT/435   Consumer Behavior 3 5 No $1,905 10/24/17 11/28/17 - 1/16/18 2/20/18 3/27/18
MKT/438   Public Relations 3 5 No $1,905 10/24/17 11/28/17 - 1/16/18 2/20/18 3/27/18
MKT/440   Fundamentals of Digital Marketing 3 5 No $1,905 10/24/17 11/28/17 - 1/16/18 2/20/18 3/27/18
MKT/441   Marketing Research 3 5 No $1,905 10/24/17 11/28/17 - 1/16/18 2/20/18 3/27/18
OI/365   Knowledge Management and Intellectual Capital 3 5 No $1,905 10/24/17 11/28/17 - 1/16/18 2/20/18 3/27/18
QNT/275   Statistics for Decision Making 3 5 No $1,230 10/10 & 10/24 11/14 & 11/28 - 1/2 & 1/16 2/6 & 2/20 3/13 & 3/27
QNT/351   Quantitative Analysis for Business 3 5 No $1,905 10/10 & 10/24 11/14 & 11/28 - 1/2 & 1/16 2/6 & 2/20 3/13 & 3/27
RES/351   Business Research 3 5 No $1,905 10/10 & 10/24 11/14 & 11/28 - 1/2 & 1/16 2/6 & 2/20 3/13 & 3/27
REV/405   Hospitality Pricing and Yield Management 3 5 No $1,905 10/24/17 11/28/17 - 1/16/18 2/20/18 3/27/18
REV/410   Revenue Management Strategy and Implementation 3 5 No $1,905 10/24/17 11/28/17 - 1/16/18 2/20/18 3/27/18
RST/240   Food Safety Management 3 5 No $1,230 10/24/17 - - 1/16/18 - 3/27/18
RST/244   Restaurant Personnel Management 3 5 No $1,230 - 11/28/17 - - 2/20/18 -

back to top

Graduate

Course Course Title Credits Weeks General Elective Tuition Oct-17 Nov-17 Dec-17 Jan-18 Feb-18 Mar-18
ACC/537   Financial Accounting 3 6 No $2,220 10/10/17 11/21/17 - 1/16/18 2/27/18 -
ACC/541   Accounting Research and Theory 3 6 No $2,220 10/10/17 11/21/17 - 1/16/18 2/27/18 -
ACC/542   Accounting Information Systems 3 6 No $2,220 10/10/17 11/21/17 - 1/16/18 2/27/18 -
ACC/543   Managerial Accounting and Legal Aspects of Business 3 6 No $2,220 10/10/17 11/21/17 - 1/16/18 2/27/18 -
ACC/544   Internal Control Systems 3 6 No $2,220 10/10/17 11/21/17 - 1/16/18 2/27/18 -
ACC/545   Financial Reporting 3 6 No $2,220 10/10/17 11/21/17 - 1/16/18 2/27/18 -
ACC/546   Auditing 3 6 No $2,220 10/10/17 11/21/17 - 1/16/18 2/27/18 -
ACC/547   Taxation 3 6 No $2,220 10/10/17 11/21/17 - 1/16/18 2/27/18 -
ACC/548   Not for Profit & Government Accounting 3 6 No $2,220 10/10/17 11/21/17 - 1/16/18 2/27/18 -
ACC/556   Forensic Accounting 3 6 No $2,220 10/10/17 11/21/17 - 1/16/18 2/27/18 -
ACC/561   Accounting 3 6 No $2,220 10/10/17 11/21/17 - 1/16/18 2/27/18 -
COM/530   Communication for Accountants 3 6 No $2,220 10/10/17 11/21/17 - 1/16/18 2/27/18 -
COM/537   Organizational Communications 3 6 No $2,220 10/10/17 11/21/17 - 1/16/18 2/27/18 -
COM/539   Communications: Selling and Customer Engagement 3 6 No $2,220 - - - - - -
ECO/561   Economics 3 6 No $2,220 10/10/17 11/21/17 - 1/16/18 2/27/18 -
ENT/527   Opportunity Assessment and Innovation 3 6 No $2,220 10/10/17 11/21/17 - 1/16/18 2/27/18 -
ETH/557   Accounting Ethics 3 6 No $2,220 10/10/17 11/21/17 - 1/16/18 2/27/18 -
FIN/571   Corporate Finance 3 6 No $2,220 10/10/17 11/21/17 - 1/16/18 2/27/18 -
FIN/575   Project Budget and Finance 3 6 No $2,220 10/10/17 11/21/17 - 1/16/18 2/27/18 -
FIN/580   Global Capital Markets 3 6 No $2,220 10/10/17 - - 1/16/18 - -
FIN/585   Financial Controlling 3 6 No $2,220 - 11/21/17 - - 2/27/18 -
FIN/592   Mergers and Acquisitions 3 6 No $2,220 10/10/17 - - 1/16/18 - -
FIN/593   Investment Banking 3 6 No $2,220 - 11/21/17 - - 2/27/18 -
GMGT/510   Global Business Organization and Culture 3 6 No $2,220 10/10/17 - - 1/16/18 - -
GMGT/520   External Environment of Global Business 3 6 No $2,220 - 11/21/17 - - 2/27/18 -
GMGT/530   Internal Environment of Global Business 3 6 No $2,220 10/10/17 - - 1/16/18 - -
GMGT/540   Global Strategy Formulation and Implementation 3 6 No $2,220 - 11/21/17 - - 2/27/18 -
HRM/531   Human Capital Management 3 6 No $2,220 10/10/17 11/21/17 - 1/16/18 2/27/18 -
HRM/548   Recruitment and Retention Practices 3 6 No $2,220 10/10/17 11/21/17 - 1/16/18 2/27/18 -
HRM/552   Organizational Training and Development 3 6 No $2,220 10/10/17 11/21/17 - 1/16/18 2/27/18 -
HRM/558   Research in Human Resource Management 3 6 No $2,220 10/10/17 11/21/17 - 1/16/18 2/27/18 -
LAW/531   Business Law 3 6 No $2,220 10/10/17 11/21/17 - 1/16/18 2/27/18 -
LAW/575   Business Law for Consultants 3 6 No $2,220 10/10/17 11/21/17 - 1/16/18 2/27/18 -
LDR/531   Organizational Leadership 3 6 No $2,220 10/10/17 11/21/17 - 1/16/18 2/27/18 -
LDR/535   Leading Change 3 6 No $2,220 10/10/17 11/21/17 - 1/16/18 2/27/18 -
MGT/521   Management 3 6 No $2,220 10/10/17 11/21/17 - 1/16/18 2/27/18 -
MGT/527   Consulting 3 6 No $2,220 10/10/17 11/21/17 - 1/16/18 2/27/18 -
MGT/538   Managing in a Cross-cultural Environment 3 6 No $2,220 10/10/17 11/21/17 - 1/16/18 2/27/18 -
MGT/557   Negotiation, Power, and Politics 3 6 No $2,220 10/10/17 11/21/17 - 1/16/18 2/27/18 -
MGT/567   Ethics and Social Responsibility 3 6 No $2,220 10/10/17 11/21/17 - 1/16/18 2/27/18 -
MKT/571   Marketing 3 6 No $2,220 10/10/17 11/21/17 - 1/16/18 2/27/18 -
MKT/575   Marketing Strategy 3 6 No $2,220 10/10/17 11/21/17 - 1/16/18 2/27/18 -
MKT/578   Public Relations 3 6 No $2,220 10/10/17 11/21/17 - 1/16/18 2/27/18 -
OPS/571   OPERATIONS MANAGEMENT 3 6 No $2,220 10/10/17 11/21/17 - 1/16/18 2/27/18 -
ORG/581   Organizational Design 3 6 No $2,220 10/10/17 11/21/17 - 1/16/18 2/27/18 -
PM/571   Project Management 3 6 No $2,220 10/10/17 11/21/17 - 1/16/18 2/27/18 -
PM/582   Project Leadership 3 6 No $2,220 10/10/17 11/21/17 - 1/16/18 2/27/18 -
PM/584   Project Risk Management 3 6 No $2,220 10/10/17 11/21/17 - 1/16/18 2/27/18 -
PM/586   Project Quality Management 3 6 No $2,220 10/10/17 11/21/17 - 1/16/18 2/27/18 -
QNT/561   Applied Business Research and Statistics 3 6 No $2,220 10/10/17 11/21/17 - 1/16/18 2/27/18 -
QNT/565   Research Methods, Design, and Analysis 3 6 No $2,220 10/10/17 11/21/17 - 1/16/18 2/27/18 -
QRB/501   Quantitative Reasoning for Business 3 6 No $2,220 10/10/17 11/21/17 - 1/16/18 2/27/18 -
TMGT/540   Management of R & D and Innovation Processes   3 6 No $2,220 10/10/17 - - 1/16/18 - -
TMGT/550   Technology Transfer in the Global Economy  3 6 No $2,220 - 11/21/17 - - 2/27/18 -
TMGT/590   Applications of Technology Management 3 6 No $2,220 10/10/17 - - 1/16/18 - -

back to top

Human Services

Undergraduate

Course Course Title Credits Weeks General Elective Tuition Oct-17 Nov-17 Dec-17 Jan-18 Feb-18 Mar-18
BSA/376   Systems Analysis and Design 3 5 No $1,905 10/24/17 11/28/17 - 1/16/18 2/20/18 3/27/18
HCS/207   Introduction to Medical Terminology 3 5 No $1,230 10/24/17 11/28/17 - 1/16/18 2/20/18 3/27/18
HCS/235   Health Care Delivery in the U.S. 3 5 No $1,230 10/24/17 11/28/17 - 1/16/18 2/20/18 3/27/18
HCS/245   Introduction to Health and Disease 3 5 Yes $1,230 10/24/17 11/28/17 - 1/16/18 2/20/18 3/27/18
HCS/320   Health Care Communication Strategies 3 5 No $1,905 10/24/17 11/28/17 - 1/16/18 2/20/18 3/27/18
HCS/325   Health Care Management 3 5 No $1,905 10/24/17 11/28/17 - 1/16/18 2/20/18 3/27/18
HCS/335   Ethics: Healthcare and Social Responsibility 3 5 Yes $1,905 10/24/17 11/28/17 - 1/16/18 2/20/18 3/27/18
HCS/341   Human Resources in Health Care 3 5 No $1,905 10/24/17 11/28/17 - 1/16/18 2/20/18 3/27/18
HCS/350   Introduction to Healthcare Communication 3 5 No $1,530 - - - - - -
HCS/405   Health Care Financial Accounting 3 5 No $1,905 10/24/17 11/28/17 - 1/16/18 2/20/18 3/27/18
HCS/433   Dimensions of Health and the Older Adult 3 5 No $1,905 10/24/17 11/28/17 - 1/16/18 2/20/18 3/27/18
HCS/437   Long-term Care Administration 3 5 No $1,905 10/24/17 11/28/17 - 1/16/18 2/20/18 3/27/18
HCS/446   Facility Planning 3 5 No $1,905 10/24/17 11/28/17 - 1/16/18 2/20/18 3/27/18
HCS/455   Health Care Policy: The Past and The Future 3 5 No $1,905 10/24/17 11/28/17 - 1/16/18 2/20/18 3/27/18
HCS/457   Public and Community Health 3 5 No $1,905 10/24/17 11/28/17 - 1/16/18 2/20/18 3/27/18
HCS/465   Healthcare Research Utilization 3 5 No $1,905 10/24/17 11/28/17 - 1/16/18 2/20/18 3/27/18
HCS/475   Leadership and Performance Development 3 5 No $1,905 10/24/17 11/28/17 - 1/16/18 2/20/18 3/27/18
HCS/490   Health Care Consumer-Trends and Marketing 3 5 No $1,905 10/24/17 11/28/17 - 1/16/18 2/20/18 3/27/18
LTC/310   Social and Community Related Programs and Services 3 5 No $1,905 10/24/17 11/28/17 - 1/16/18 2/20/18 3/27/18
LTC/315   Alternative Living Environments 3 5 No $1,905 10/24/17 11/28/17 - 1/16/18 2/20/18 3/27/18
LTC/328   Legal Perspectives in Aging 3 5 No $1,905 10/24/17 11/28/17 - 1/16/18 2/20/18 3/27/18

back to top

Graduate

Course Course Title Credits Weeks General Elective Tuition Oct-17 Nov-17 Dec-17 Jan-18 Feb-18 Mar-18
HCS/514   Managing in Today's Health Care Organization 3 6 No $2,220 10/10/17 11/21/17 - 1/16/18 2/27/18 -
HCS/535   Concepts of Population Health 3 6 No $2,220 10/10/17 11/21/17 - 1/16/18 2/27/18 -
HCS/539   Marketing for Health Care 3 6 No $2,220 10/10/17 11/21/17 - 1/16/18 2/27/18 -
HCS/545   Health Law and Ethics 3 6 No $2,220 10/10/17 11/21/17 - 1/16/18 2/27/18 -
HCS/548   Foundations of Gerontology 3 6 No $2,220 10/10/17 11/21/17 - 1/16/18 - -
HCS/551   Biological and Psychological Aspects of Aging 3 6 No $2,220 10/10/17 - - - 2/27/18 -
HCS/557   Social and Cultural Aspects of Aging 3 6 No $2,220 - 11/21/17 - - - -
HCS/567   Entrepreneurship in Health Care 3 6 No $2,220 10/10/17 11/21/17 - 1/16/18 2/27/18 -
HCS/587   Creating Change within Organizations 3 6 No $2,220 10/10/17 11/21/17 - 1/16/18 2/27/18 -
MHA/505   Systems Thinking in Health Care Environments 3 6 No $2,220 10/10/17 11/21/17 - 1/16/18 2/27/18 -

back to top

Nursing and Health Care

Undergraduate

Course Course Title Credits Weeks General Elective Tuition Oct-17 Nov-17 Dec-17 Jan-18 Feb-18 Mar-18
NSG/416   Theoretical Development and Conceptual Frameworks 3 5 No $1,530 10/24/17 11/28/17 - 1/16/18 2/20/18 3/27/18
NSG/451   Professional Nursing Leadership Perspectives 3 5 No $1,530 10/24/17 11/28/17 - 1/16/18 2/20/18 3/27/18
NSG/456   Research Outcomes Management for the Practicing Nurse 3 5 No $1,530 10/24/17 11/28/17 - 1/16/18 2/20/18 3/27/18

back to top

Graduate

Course Course Title Credits Weeks General Elective Tuition Oct-17 Nov-17 Dec-17 Jan-18 Feb-18 Mar-18
NSG/501   Pathophysiology, Assessment Variables, and Pharmacology I 3 6 No $1,785 10/10/17 11/21/17 - 1/16/18 2/27/18 -
NSG/502   Pathophysiology, Assessment Variables, and Pharmacology II 3 6 No $1,785 10/10/17 11/21/17 - 1/16/18 2/27/18 -
NSG/511   Contemporary Nursing Practice 3 6 No $1,785 10/10/17 11/21/17 - 1/16/18 2/27/18 -
NSG/512   Nursing Research 3 6 No $1,785 10/10/17 11/21/17 - 1/16/18 2/27/18 -
NSG/513   Inter-professional Leadership and Management 3 6 No $1,785 10/10/17 11/21/17 - 1/16/18 2/27/18 -
NSG/514   Health Law, Policy, Ethics, and Global Trends 3 6 No $1,785 10/10/17 11/21/17 - 1/16/18 2/27/18 -
NSG/531   Program and Course Development 3 6 No $1,785 10/10/17 11/21/17 - 1/16/18 2/27/18 -
NSG/532   Innovative Curriculum Design 3 6 No $1,785 10/10/17 11/21/17 - 1/16/18 2/27/18 -
NSG/533   Educational Assessment and Evaluation 3 6 No $1,785 10/10/17 11/21/17 - 1/16/18 2/27/18 -
NSG/534   Facilitating Engaged Learning 3 6 No $1,785 10/10/17 11/21/17 - 1/16/18 2/27/18 -
NSG/541   Data Analysis and Management 3 6 No $1,785 10/10/17 11/21/17 - 1/16/18 2/27/18 -
NSG/542   Information Workflow 3 6 No $1,785 10/10/17 11/21/17 - 1/16/18 2/27/18 -
NSG/543   Database Management 3 6 No $1,785 10/10/17 11/21/17 - 1/16/18 2/27/18 -
NSG/544   Evaluation and Application of Information 3 6 No $1,785 10/10/17 11/21/17 - 1/16/18 2/27/18 -
NSG/547   Human Resources Management 3 6 No $1,785 10/10/17 11/21/17 - 1/16/18 2/27/18 -
NSG/557   Organizational Dynamics and Systems Thinking 3 6 No $1,785 10/10/17 11/21/17 - 1/16/18 2/27/18 -
NSG/567   Financial Resources Management in Health Care 3 6 No $1,785 10/10/17 11/21/17 - 1/16/18 2/27/18 -
NSG/577   Continuous Quality Monitoring and Outcomes Improvement 3 6 No $1,785 10/10/17 11/21/17 - 1/16/18 2/27/18 -

back to top

Technology

Undergraduate

Course Course Title Credits Weeks General Elective Tuition Oct-17 Nov-17 Dec-17 Jan-18 Feb-18 Mar-18
BSA/310   Business Systems 3 5 Yes $1,905 10/24/17 11/28/17 - 1/16/18 2/20/18 3/27/18
BSA/375   Fundamentals of Business Systems Development 3 5 Yes $1,905 10/24/17 11/28/17 - 1/16/18 2/20/18 3/27/18
BSA/385   Intro to Software Engineering 3 5 Yes $1,905 10/24/17 11/28/17 - 1/16/18 2/20/18 3/27/18
CIS/207   Information Systems Fundamentals 3 5 Yes $1,230 10/24/17 11/28/17 - 1/16/18 2/20/18 3/27/18
CIS/211   Office Software Support Fundamentals 3 5 Yes $1,230 10/24/17 11/28/17 - 1/16/18 2/20/18 3/27/18
CIS/290   Personal Computer Hardware Support-A+ 3 5 Yes $1,230 10/24/17 11/28/17 - 1/16/18 2/20/18 3/27/18
CIS/292   Personal Computer OS Support-A+ 3 5 Yes $1,230 10/24/17 11/28/17 - 1/16/18 2/20/18 3/27/18
CIS/296   Computer Systems Maintenance 3 5 Yes $1,230 10/24/17 11/28/17 - 1/16/18 2/20/18 3/27/18
CIS/298   Healthcare IT 3 5 Yes $1,230 10/24/17 11/28/17 - 1/16/18 2/20/18 3/27/18
CIT/245   Local Area Networking Fundamentals 3 5 Yes $1,230 10/24/17 11/28/17 - 1/16/18 2/20/18 3/27/18
CMGT/245   IS Security Concepts Security+ 3 5 Yes $1,230 - 11/28/17 - - 2/20/18 -
CMGT/400   Introduction to Information Assurance and Security 3 5 Yes $1,905 10/24/17 11/28/17 - 1/16/18 2/20/18 3/27/18
CMGT/410   Project Planning and Implementation 3 5 Yes $1,905 10/24/17 11/28/17 - 1/16/18 2/20/18 3/27/18
CMGT/432   Cryptography 3 5 No $1,905 10/24/17 11/28/17 - 1/16/18 2/20/18 3/27/18
CMGT/433   Cyber Security 3 5 Yes $1,905 10/24/17 11/28/17 - 1/16/18 2/20/18 3/27/18
CSS/422   Software Architecture 3 5 Yes $1,905 10/24/17 11/28/17 - 1/16/18 2/20/18 3/27/18
DBM/280   Fundamentals of Access Database 3 5 Yes $1,230 10/24/17 11/28/17 - 1/16/18 2/20/18 3/27/18
DBM/294   Querying a SQL Server 3 5 Yes $1,230 10/24/17 11/28/17 - 1/16/18 2/20/18 3/27/18
DBM/380   Database Concepts 3 5 Yes $1,905 10/24/17 11/28/17 - 1/16/18 2/20/18 3/27/18
NTC/362   Fundamentals of Networking 3 5 Yes $1,905 10/24/17 11/28/17 - 1/16/18 2/20/18 3/27/18
POS/355   Introduction to Operating Systems 3 5 Yes $1,905 10/24/17 11/28/17 - 1/16/18 2/20/18 3/27/18
POS/408   .NET I-Uses Virtual Desktop 3 5 Yes $1,905 10/24/17 11/28/17 - 1/16/18 2/20/18 3/27/18
POS/409   .NET II-Uses Virtual Desktop 3 5 Yes $1,905 10/24/17 11/28/17 - 1/16/18 2/20/18 3/27/18
POS/410   SQL for Business-Uses Virtual Desktop 3 5 Yes $1,905 - 11/28/17 - - 2/20/18 -
PRG/211   Algorithms and Logic for Computer Programming 3 5 Yes $1,230 10/24/17 11/28/17 - 1/16/18 2/20/18 3/27/18
PRG/218   Introduction to C/C++ 3 5 Yes $1,230 10/24/17 11/28/17 - 1/16/18 2/20/18 3/27/18
PRG/280   Programming in HTML5 with JavaScript 3 5 Yes $1,230 10/24/17 11/28/17 - 1/16/18 2/20/18 3/27/18
PRG/410   C++ Programming I 3 5 Yes $1,905 10/24/17 11/28/17 - 1/16/18 2/20/18 3/27/18
PRG/420   Java Programming I 3 5 Yes $1,905 10/24/17 11/28/17 - 1/16/18 2/20/18 3/27/18
PRG/421   Java Programming II 3 5 Yes $1,905 10/24/17 11/28/17 - 1/16/18 2/20/18 3/27/18
SEC/210   Physical Asset Protection 3 5 Yes $1,230 10/24/17 - - 1/16/18 - 3/27/18
SEC/220   Critical Thinking in Security Management 3 5 Yes $1,230 - 11/28/17 - - 2/20/18 -
SEC/230   Homeland Security and Public Safety 3 5 Yes $1,230 10/24/17 - - 1/16/18 - 3/27/18
SEC/310   Introduction to Organizational Security and Management 3 5 No $1,905 10/24/17 11/28/17 - 1/16/18 2/20/18 3/27/18
SEC/451   Global Security Issues 3 5 No $1,905 10/24/17 11/28/17 - 1/16/18 2/20/18 3/27/18
VCT/236   Introduction to Image Editing and Formatting 3 5 Yes $1,230 10/24/17 11/28/17 - 1/16/18 2/20/18 3/27/18
WEB/240   Web Design Fundamentals 3 5 Yes $1,230 10/24/17 11/28/17 - 1/16/18 2/20/18 3/27/18

back to top

Graduate

Course Course Title Credits Weeks General Elective Tuition Oct-17 Nov-17 Dec-17 Jan-18 Feb-18 Mar-18
CMGT/582   Security & Ethics 3 6 No $2,220 10/10/17 11/21/17 - 1/16/18 2/27/18 -

back to top

Criminal Justice

Undergraduate

Course Course Title Credits Weeks General Elective Tuition Oct-17 Nov-17 Dec-17 Jan-18 Feb-18 Mar-18
BPA/200   Public Sector Communications 3 5 No $1,230 - 11/28/17 - - 2/20/18 -
BPA/201   Foundations of Public Administration 3 5 No $1,230 10/24/17 11/28/17 - 1/16/18 2/20/18 3/27/18
BPA/211   Foundations of Federal, State, and Local Government 3 5 No $1,230 10/24/17 11/28/17 - 1/16/18 2/20/18 3/27/18
BPA/221   Critical Thinking and Decision Making in the Public Sector 3 5 No $1,230 10/24/17 11/28/17 - 1/16/18 2/20/18 3/27/18
BPA/300   Politics and Citizenship: The Public Policy Environment 3 5 No $1,905 10/24/17 11/28/17 - 1/16/18 2/20/18 3/27/18
CJA/305   Criminal Law 3 5 Yes $1,905 10/24/17 11/28/17 - 1/16/18 2/20/18 3/27/18
CJS/201   Introduction to Criminal Justice 3 5 Yes $1,230 10/24/17 11/28/17 - 1/16/18 2/20/18 3/27/18
CJS/205   Composition For Communication In The Criminal Justice System 3 5 Yes $1,230 10/24/17 11/28/17 - 1/16/18 2/20/18 3/27/18
CJS/211   Ethics in Criminal Justice 3 5 Yes $1,230 10/24/17 11/28/17 - 1/16/18 2/20/18 3/27/18
CJS/215   Introduction to Forensics 3 5 Yes $1,230 10/24/17 11/28/17 - 1/16/18 2/20/18 3/27/18
CJS/221   Cultural Diversity in Criminal Justice 3 5 Yes $1,230 10/24/17 11/28/17 - 1/16/18 2/20/18 3/27/18
CJS/225   Critical Thinking in Criminal Justice 3 5 No $1,230 10/24/17 11/28/17 - 1/16/18 2/20/18 3/27/18
CJS/231   Criminology 3 5 Yes $1,230 10/24/17 11/28/17 - 1/16/18 2/20/18 3/27/18
CJS/235   Victimology 3 5 Yes $1,230 10/24/17 11/28/17 - 1/16/18 2/20/18 3/27/18
CJS/241   Introduction to Police Theory and Practices 3 5 Yes $1,230 10/24/17 11/28/17 - 1/16/18 2/20/18 3/27/18
CJS/245   Juvenile Justice Systems and Processes 3 5 No $1,230 10/24/17 11/28/17 - 1/16/18 2/20/18 3/27/18
CJS/251   Introduction to Criminal Court Systems 3 5 Yes $1,230 10/24/17 11/28/17 - 1/16/18 2/20/18 3/27/18
CJS/255   Introduction to Corrections 3 5 Yes $1,230 10/24/17 11/28/17 - 1/16/18 2/20/18 3/27/18

back to top

Graduate

Course Course Title Credits Weeks General Elective Tuition Oct-17 Nov-17 Dec-17 Jan-18 Feb-18 Mar-18
MPA/503   Public Administration Institutions and Processes 3 6 No $2,220 10/10/17 - - 1/16/18 - -

back to top

Doctoral

Course Course Title Credits Weeks General Elective Tuition Oct-17 Nov-17 Dec-17 Jan-18 Feb-18 Mar-18
BUS/721   Issues in Optimizing Operations 3 8 No $2,430 10/10/17 11/14/17 - 1/16/18 - -
CUR/713   Curriculum, Developmental, and Learning Theories 3 8 No $2,430 10/31/17 - - 1/2/18 2/6/18 3/27/18
CUR/721   Curriculum Design 3 8 No $2,430 10/10/17 - 12/12/17 1/16/18 2/20/18 -
CUR/731   Supervision of Curriculum and Instruction 3 8 No $2,430 10/10/17 11/21/17 12/12/17 1/2/18 2/6 & 2/20 -
DHA/711   Administration of Complex Health Care Systems 3 8 No $2,430   11/14/17 12/5/17 - - 3/6/18
DHA/721   Health Care Economics 3 8 No $2,430 10/10/17   - 1/2/18 2/13/18 -
DHA/722   Policy and Regulation in Health Care 3 8 No $2,430 - 11/21/17 -   2/27/18 -
DHA/724   Globalization of Health Care 3 8 No $2,430 10/24/17   - 1/2 & 1/16 2/6/18 -
EDD/724   Instructional Leadership 3 8 No $2,430 10/10 & 10/24 11/14/17 - 1/2 & 1/16 2/6 & 2/13 -
EDD/731   The Economics of Education 3 8 No $2,430 10/10/17 11/21/17 - 1/2/18 2/6 & 2/20 -
EDT/723   Instructional Media and Design Techniques 3 8 No $2,430 10/10 & 10/24 11/14/17 - 1/2 & 1/16 2/6/18 -
EDT/732   Integrating Technology and Curriculum 3 8 No $2,430 10/10/17 11/21/17 12/12/17 1/2/18 2/20/18 -
FIN/711   Financial Measures of Value Added 3 8 No $2,430 - 11/14/17 12/5/17 - - 3/6/18
IST/710   Foundations of Information Systems Management 3 8 No $2,430 - 11/21/17 - - 2/6 & 2/13 -
IST/722   Information Technology for Teams 3 8 No $2,430 - 11/21/17 - - 2/27/18 -
LDR/711A   Leadership Theory and Practice 3 8 No $2,430 10/3 & 10/31 11/14/17 - 1/2/18 2/6 & 2/20 3/27/18
LDR/726   The Dynamics of Group and Team Leadership 3 8 No $2,430 10/10/17 11/14/17 - 1/2/18 2/13/18 -
LDR/731   Contemporary Issues in Leadership 3 8 No $2,430 10/10/17 11/21/17 - 1/2/18 2/6 & 2/20 -
MGT/711   Strategic Opportunities in an Internet-Based Global Economy 3 8 No $2,430 10/10/17 - - 1/2/18 2/13/18 -
MGT/726   Emerging Managerial Practices 3 8 No $2,430 10/10/17 11/21/17 - 1/16/18 2/27/18 -
MKT/711   Marketing and Managing the Customer Relationship 3 8 No $2,430   11/21/17 -   2/27/18 -
ORG/726   The Impact of Technology on Organizations 3 8 No $2,430 10/10/17 11/21/17 - 1/16/18 2/27/18 -
ORG/727   Organizational Diagnosis and Intervention 3 8 No $2,430 10/10 & 10/24 11/14/17 - 1/2 & 1/16 2/6/18 -
RES/709   Research Conceptualization and Design 3 8 No $2,430 10/3/17 11/14/17 - 1/2 & 1/16 2/13/18 3/6/18
RES/710   Statistical Research Methods and Design I  3 8 No $2,430 10/3/17 11/14/17 - 1/16/18 2/6/18 3/6/18
RES/720   Statistical Research Methods and Design II 3 8 No $2,430 10/31/17 - 12/12/17 - 2/6/18 3/6/18
RES/723   Advanced Statistical Research Methods and Design 3 8 No $2,430 - - - - - -
RES/724   Qualitative Methods and Design 3 8 No $2,430 10/31/17 - 12/12/17 - 2/6/18 3/20/18
RES/725   Descriptive and Comparative Data Analysis 3 8 No $2,430 10/10/17 11/28/17 12/12/17 1/2/18 2/13 & 2/27 3/13/18
RES/726   Correlational Methods of Analysis 3 8 No $2,430 10/10/17 11/28/17 12/12/17 1/2/18 2/13 & 2/27 3/13/18
RES/727   Approaches to Phenomenological Inquiry and Data Analysis 3 8 No $2,430 10/10/17 11/28/17 12/12/17 1/2/18 2/13 & 2/27 3/13/18
RES/728   Qualitative Case Study 3 8 No $2,430 10/10/17 11/28/17 12/12/17 1/2/18 2/13 & 2/27 3/13/18
RES/729   Ethnometholdology and the Study of Culture 3 8 No $2,430 10/10/17 11/28/17 12/12/17 1/2/18 2/13 & 2/27 3/13/18
RES/745   Grounded Theory Methods 3 8 No $2,430 10/10/17 11/28/17 12/12/17 1/2/18 2/13 & 2/27 3/13/18

back to top